Regional Weather Roundup
Issued by NWS

Home | Current Version | Previous Version | Graphics & Text | Print | Product List | Glossary On
Versions: 1 2 3 4 5 6 7 8 9 10 11 12 13 14 15 16 17 18 19 20 21 22 23 24 25 26 27 28 29 30 31 32 33 34 35 36 37 38 39 40 41 42 43 44 45 46 47 48 49 50
000
ASUS43 KLOT 292110
RWRIL

ILLINOIS REGIONAL WEATHER ROUNDUP
NATIONAL WEATHER SERVICE CHICAGO/ROMEOVILLE IL
400 PM CDT FRI AUG 29 2014

NOTE: "FAIR" INDICATES FEW OR NO CLOUDS BELOW 12,000 FEET WITH NO
SIGNIFICANT WEATHER AND/OR OBSTRUCTIONS TO VISIBILITY.

* THESE STATIONS ARE NOT UNDER NWS QUALITY CONTROL. THEY ALSO MAY NOT
  REPORT WEATHER SUCH AS PRECIPITATION OR FOG.

ILZ001-002-007-009-015-016-024-292200-
NORTHWEST ILLINOIS

CITY           SKY/WX    TMP DP  RH WIND       PRES   REMARKS
MOLINE         SUNNY     86  72  62 SE12      29.82F HX  92
STERLING*      MOSUNNY   88  73  62 S6        29.85F HX  96
SAVANNA*       MOSUNNY   90  69  49 S10G16    29.83S HX  95
$$

ILZ003-004-008-010-011-017-018-292200-
NORTH CENTRAL ILLINOIS

CITY           SKY/WX    TMP DP  RH WIND       PRES   REMARKS
ROCKFORD       MOSUNNY   85  71  63 S16       29.86F HX  90
FREEPORT*      SUNNY     83  75  78 S13       29.87F HX  90
ROCHELLE*      SUNNY     83  71  65 SE10      29.87F HX  88
DE KALB*       SUNNY     82  71  69 S10       29.89F HX  87
PERU*          MOSUNNY   86  71  61 SE13G18   29.87F HX  91
$$

ILZ005-006-012>014-019>023-292200-
NORTHEAST ILLINOIS

CITY           SKY/WX    TMP DP  RH WIND       PRES   REMARKS
CHICAGO-OHARE  PTSUNNY   86  70  58 S16       29.89F HX  90
CHICAGO-MIDWAY PTSUNNY   87  72  60 S12       29.89F HX  93
AURORA         SUNNY     86  70  58 S12       29.88F HX  90
LANSING*         N/A    N/A N/A N/A MISG        N/A
JOLIET*        MOSUNNY   85  70  60 SE8       29.90F HX  89
WAUKEGAN       PTSUNNY   80  71  74 SE13      29.88F HX  84
DUPAGE AIRPORT SUNNY     87  71  58 S13       29.88F HX  93
KANKAKEE*      PTSUNNY   81  74  80 SE6       29.92F HX  86
WHEELING       MOSUNNY   87  73  62 S10       29.89F HX  94
MORRIS*        SUNNY     85  73  69 S8        29.89F HX  91
ROMEOVILLE*    MOSUNNY   85  71  63 S9        29.90F HX  89
NORTHERLY ISL    N/A     85  70  60 S8          N/A  HX  89
$$

LMZ740>746-292200-
SOUTHERN LAKE MICHIGAN

STATION/POSITION SKY/WX   TEMP    WIND        PRES    VSBY  WAVE
                          AIR SEA DIR/SP/G                  HT/PER
                          (F)     (DEG/KT/KT) (MB)    (MI)  (FT/S)
SOUTHERN BUOY              71 69  150/ 16/ 17 1012.6F         3/ 5
WAUKEGAN HARBOR            78     140/ 18/ 20   N/A
HARRISON CRIB              76     130/ 16/ 17   N/A
BURNHAM HARBOR             84     120/  9/ 11   N/A
CALUMET HARBOR             80     140/  8/ 12 1011.7F
MICHIGAN CITY              79     130/ 12/ 16   N/A
MICHIGAN CITY 6N           77 72  150/ 10/ 12   N/A           1/ 2
ST. JOSEPH                 77 71  160/ 14/ 19   N/A           1/ 3
$$

ILZ025>027-034>036-040-047-049-050-058-095>099-292200-
WEST-CENTRAL ILLINOIS

CITY           SKY/WX    TMP DP  RH WIND       PRES   REMARKS
QUINCY         MOSUNNY   86  65  49 S10       29.82F HX  88
GALESBURG*     SUNNY     86  70  58 SE8       29.84F HX  91
MACOMB*        MOSUNNY   85  68  55 S14       29.85F HX  88
JACKSONVILLE*  MOSUNNY   85  72  64 SE10      29.87F HX  90
PITTSFIELD*    SUNNY     89  66  46 S10G16    29.85F HX  91
$$

ILZ028>032-037-038-041>044-048-051>054-059>061-292200-
CENTRAL ILLINOIS

CITY           SKY/WX    TMP DP  RH WIND       PRES   REMARKS
PONTIAC        MOSUNNY   86  73  66 SE7       29.89F HX  93
DECATUR        MOSUNNY   88  69  53 S10       29.89F HX  92
PEORIA         MOSUNNY   87  72  60 SE12      29.86F HX  93
LACON*         MOSUNNY   86  71  59 S12       29.86F HX  91
LINCOLN*       MOSUNNY   88  70  56 SE9       29.84F HX  93
SPRINGFIELD    PTSUNNY   85  70  60 S8        29.87F HX  89
TAYLORVILLE    MOSUNNY   86  70  58 S10       29.88S HX  90
$$

ILZ033-039-045-046-055>057-062-063-292200-
EAST-CENTRAL ILLINOIS

CITY           SKY/WX    TMP DP  RH WIND       PRES   REMARKS
CHAMPAIGN      MOSUNNY   87  72  60 S10       29.91F HX  93
DANVILLE*      RAIN      84  73  71 S7        29.89F HX  90
RANTOUL*       PTSUNNY   86  72  64 SE9       29.91F HX  92
MATTOON        PTSUNNY   87  71  58 S9        29.90F HX  93
PARIS*         MOSUNNY   85  75  70 S5        29.92F THUNDER HX  94
$$

ILZ079-100>102-292200-
SOUTHWEST ILLINOIS

CITY           SKY/WX    TMP DP  RH WIND       PRES   REMARKS
ALTON          MOSUNNY   90  59  35 S14       29.87F HX  89
BELLEVILLE     SUNNY     89  71  54 VRB6      29.86F HX  95
CAHOKIA*       SUNNY     90  66  45 S12G17    29.85F HX  92
SPARTA*        SUNNY     88  67  50 SE9       29.89F HX  91
$$

ILZ064>066-069>071-074>076-080>082-084>086-088>090-092>094-292200-
SOUTH-CENTRAL ILLINOIS

CITY           SKY/WX    TMP DP  RH WIND       PRES   REMARKS
CARBONDALE     MOSUNNY   87  65  47 S14G21    29.90F HX  89
CAIRO*         SUNNY     91  67  45 S10       29.91F HX  94
EFFINGHAM*     SUNNY     89  61  39 S10       29.90F HX  89
MARION         PTSUNNY   91  68  46 SW12      29.92F HX  95
MT. VERNON     PTSUNNY   88  70  55 S8        29.91F HX  92
CENTRALIA*     SUNNY     88  68  51 S12       29.90F HX  91
SALEM*         SUNNY     88  73  60 S7        29.90F HX  96
METROPOLIS*    SUNNY     91  68  47 S7        29.91F HX  94
$$

ILZ067-068-072-073-078-083-087-091-292200-
SOUTHEAST ILLINOIS

CITY           SKY/WX    TMP DP  RH WIND       PRES   REMARKS
LAWRENCEVILLE  MOSUNNY   83  72  69 SE10      29.93S HX  88
FLORA*         MOSUNNY   88  67  48 S13       29.91F HX  90
FAIRFIELD*     SUNNY     90  72  55 S9        29.91S HX  96
HARRISBURG*    MOSUNNY   89  66  46 S12       29.93F HX  91
ROBINSON*      MOSUNNY   89  77  67 S5        29.92F HX 101
CARMI*         MOSUNNY   89  71  53 S9        29.91F HX  95
$$

ABBREVIATIONS USED IN REMARKS
   TC - TEMPERATURE IN CELSIUS
  WCI - WIND CHILL INDEX
   HX - HEAT INDEX
  VSB - VISIBILITY
$$




USA.gov is the U.S. government's official web portal to all federal, state and local government web resources and services.